Miscellaneous Local Product
Issued by NWS Hastings, NE

Home | Current Version | Previous Version | Text Only | Print | Product List | Glossary Off
Versions: 1 2 3 4 5 6 7 8 9 10 11 12 13 14 15 16 17 18 19 20 21 22 23 24 25 26 27 28 29 30 31 32 33 34 35 36 37 38 39 40 41 42 43 44 45 46 47 48 49 50

442
AXUS43 KGID 221502
MISGRI

GID CWA HOURLY WEATHER ROUNDUP
NATIONAL WEATHER SERVICE HASTINGS NE
1000 AM CDT MON MAY 22 2017

NOTE: "FAIR" INDICATES FEW OR NO CLOUDS BELOW 12,000 FEET WITH NO
SIGNIFICANT WEATHER AND/OR OBSTRUCTIONS TO VISIBILITY.

...SOUTH CENTRAL NEBRASKA...

CITY           SKY/WX    TMP DP  RH WIND       PRES   REMARKS
GRAND ISLAND   MOSUNNY   61  48  62 W10       30.00F
HASTINGS       CLOUDY    63  46  54 NW13      30.01F
KEARNEY        MOSUNNY   61  43  51 NW8       30.02F
ORD            SUNNY     62  45  53 NW12      29.98F
YORK           CLOUDY    63  48  59 W15       29.99F
AURORA         SUNNY     63  47  56 W13       29.99
LEXINGTON      CLOUDY    59  47  65 W9        30.03F
HOLDREGE       CLOUDY    60  45  57 NW8       30.03F
HEBRON         LGT RAIN  58  54  86 SW7       30.02R

...NEBRASKA PANHANDLE...

CITY           SKY/WX    TMP DP  RH WIND       PRES   REMARKS
CHADRON        PTSUNNY   52  44  74 W12       30.06S
ALLIANCE       CLOUDY    54  41  61 W13       30.06R
SCOTTSBLUFF    CLOUDY    51  40  65 NW9       30.10S
SIDNEY         SUNNY     57  42  57 W15       30.11S

...WESTERN AND NORTH CENTRAL NEBRASKA...

CITY           SKY/WX    TMP DP  RH WIND       PRES   REMARKS
VALENTINE      CLOUDY    55  41  59 NW12      30.00S
AINSWORTH      MOSUNNY   59  45  60 N13       29.99F
ONEILL         SUNNY     62  44  52 W15       29.97R
BROKEN BOW     SUNNY     62  46  55 NW16      30.00F
IMPERIAL       SUNNY     60  46  59 W12       30.07F
NORTH PLATTE   SUNNY     60  48  64 W12       30.04F
MCCOOK         CLOUDY    59  49  69 W8        30.06S

...EASTERN NEBRASKA...

CITY           SKY/WX    TMP DP  RH WIND       PRES   REMARKS
NORFOLK        SUNNY     62  46  55 NW9       29.94F
SO SIOUX CITY  SUNNY     63  51  65 W10       29.91S
TEKAMAH        SUNNY     64  50  60 W13       29.93S
COLUMBUS       SUNNY     63  46  55 MISG      29.97F
ALBION         SUNNY     63  45  51 NW8       29.96F
OMAHA EPPLEY   CLOUDY    66  48  52 VRB7      29.94F
MILLARD        PTSUNNY   65  51  62 W7        29.96F
LINCOLN        MOSUNNY   61  50  67 W9        29.99R
NEBRASKA CITY  PTSUNNY   62  52  71 W13       29.98S
BEATRICE       LGT RAIN  60  55  83 W8        30.00F
FALLS CITY     PTSUNNY   63  57  81 SW8       29.99F

...NORTHERN KANSAS...

CITY           SKY/WX    TMP DP  RH WIND       PRES   REMARKS
GOODLAND       CLOUDY    53  49  86 NW9       30.10S
HILL CITY      LGT RAIN  58  54  86 W7        30.07R
NORTON         SUNNY     57  48  72 W9        30.05S
PHILLIPSBURG   CLOUDY    59  54  82 W3        30.05S
SMITH CENTER   CLOUDY    59  54  82 SW9       30.05S
HAYS           LGT RAIN  56  54  93 NW6       30.07S
RUSSELL        LGT RAIN  56  54  93 S5        30.06R
CONCORDIA      LGT RAIN  58  57  97 W7        30.04R
SALINA         CLOUDY    61  57  87 S8        30.05S
TOPEKA         RAIN      60  56  86 W8        30.07R FOG



USA.gov is the U.S. government's official web portal to all federal, state and local government web resources and services.